STARLINK-36788

Last updated on Sun Mar 15 2026 00:02:07 GMT+0000 (Coordinated Universal Time)

1 67819U 26032Y 26073.49691936 .00157531 00000+0 10352-2 0 9993 2 67819 97.2839 260.2715 0001673 65.2164 294.9275 15.75245403 5543
UTC large
Height (km)
Speed (km/s)
/
Latitude / Longitude
Inclination (degrees)
Orbital Period (minutes)
Azimuth
Elevation
Range (km)
Doppler Factor

Next 0 passes for location: London (51.5072 / 0.1276)

Sorry there are no passes over London.